Terug naar catalogus

FENGYUN 1C DEB

ActiefPO
NORAD 30623·DEBRIS·🇨🇳 China

Gelanceerd May 10, 1999 vanaf Taiyuan Satellite Launch Center

Loading…

Volgende Passages (komende 24 uur)

TLE

VersSource: Space-Track

Epoch: Sep 14, 2026, 09:18 UTC

1 30623U 99025ANE 26257.38797479  .00000236  00000-0  36930-3 0  9990
2 30623  98.8559  42.3245 0404598 147.2419 243.1347 13.29574607948793

Volg FENGYUN 1C DEB in realtime met AllMySat

Download on the App Store